Location: New Canada
(47.1017°N, 68.5042°W)
Time: 18:12:14
(UTC+00:00)

RS-15 - Visible Passes

Search period start: 28 March 2023 00:00
Search period end: 07 April 2023 00:00
Orbit: 1884 x 2161 km, 64.8° (Epoch: 27 March)

Date Brightness Start Highest point End Pass type
(mag) Time Alt. Az. Time Alt. Az. Time Alt. Az.
28 Mar 9.3 01:01:27 10° WNW 01:12:17 34° N 01:22:47 10° ENE visible
28 Mar 8.7 03:16:59 10° NW 03:28:36 47° NNE 03:34:19 29° E visible
28 Mar 7.8 05:30:09 10° NW 05:42:02 76° WSW 05:42:02 76° WSW visible
28 Mar 9.1 07:44:36 10° NW 07:49:44 19° W 07:49:44 19° W visible
29 Mar 9.4 00:24:25 10° WNW 00:35:21 35° N 00:46:00 10° NE visible
29 Mar 8.9 02:40:34 10° NW 02:51:56 41° NNE 02:59:09 22° E visible
29 Mar 7.8 04:53:59 10° NW 05:06:07 89° NE 05:06:52 82° SE visible
29 Mar 8.9 07:07:41 10° NW 07:14:34 27° W 07:14:34 27° W visible
29 Mar 9.3 23:47:21 10° W 23:58:29 37° NNW 00:09:21 10° NE visible
30 Mar 9.0 02:04:03 10° NW 02:15:10 38° NNE 02:24:02 15° ENE visible
30 Mar 8.0 04:17:50 10° NW 04:29:58 76° NE 04:31:45 66° ESE visible
30 Mar 8.6 06:31:08 10° NW 06:39:28 35° W 06:39:28 35° W visible
30 Mar 9.3 23:10:17 10° W 23:21:40 40° NNW 23:32:50 10° NE visible
31 Mar 9.2 01:27:24 10° NW 01:38:20 35° NNE 01:48:50 10° ENE visible
31 Mar 8.2 03:41:39 10° NW 03:53:42 64° NE 03:56:40 52° E visible
31 Mar 8.3 05:54:45 10° NW 06:04:24 46° W 06:04:24 46° W visible
01 Apr 9.3 00:50:36 10° WNW 01:01:26 34° N 01:11:52 10° ENE visible
01 Apr 8.4 03:05:25 10° NW 03:17:18 55° NE 03:21:38 39° E visible
01 Apr 8.0 05:18:29 10° NW 05:29:22 60° WSW 05:29:22 60° WSW visible
01 Apr 9.4 07:34:39 10° WNW 07:37:05 13° WNW 07:37:05 13° WNW visible
02 Apr 9.3 00:13:41 10° WNW 00:24:30 33° N 00:34:58 10° ENE visible
02 Apr 8.6 02:29:07 10° NW 02:40:46 47° NNE 02:46:38 29° E visible
02 Apr 7.8 04:42:17 10° NW 04:54:12 74° WSW 04:54:21 74° SW visible
02 Apr 9.2 06:56:52 10° NW 07:02:05 19° W 07:02:05 19° W visible
02 Apr 9.4 23:36:40 10° WNW 23:47:34 34° N 23:58:11 10° NE visible
03 Apr 8.8 01:52:44 10° NW 02:04:07 42° NNE 02:11:39 21° E visible
03 Apr 7.8 04:06:07 10° NW 04:18:12 89° SW 04:19:23 77° SSE visible
03 Apr 8.9 06:19:53 10° NW 06:27:07 26° W 06:27:07 26° W visible
04 Apr 9.0 01:16:14 10° NW 01:27:22 38° NNE 01:36:42 14° E visible
04 Apr 8.0 03:29:57 10° NW 03:42:05 77° NE 03:44:27 62° ESE visible
04 Apr 8.6 05:43:18 10° NW 05:52:10 35° W 05:52:10 35° W visible
05 Apr 9.1 00:39:36 10° NW 00:50:33 35° NNE 01:01:03 10° ENE visible
05 Apr 8.2 02:53:46 10° NW 03:05:49 66° NE 03:09:31 48° ESE visible
05 Apr 8.3 05:06:53 10° NW 05:17:15 46° WSW 05:17:15 46° WSW visible
06 Apr 9.2 00:02:50 10° WNW 00:13:39 34° N 00:24:05 10° ENE visible
06 Apr 8.4 02:17:33 10° NW 02:29:26 56° NE 02:34:38 35° E visible
06 Apr 8.0 04:30:36 10° NW 04:42:07 58° WSW 04:42:22 58° WSW visible
06 Apr 9.5 06:47:11 10° WNW 06:50:06 13° W 06:50:06 13° W visible
06 Apr 9.3 23:25:55 10° WNW 23:36:43 33° N 23:47:11 10° ENE visible
